| time (UTC) | temp F | wind direction | speed MPH | gust MPH | rain 1hr in | rain 24hr in | rain mn in | humidity % | barometer mb |
| 20260510070808 | 41 | 286 | 0.0 | 1.0 | 0.00 | 0.00 | 0.00 | 76 | 1013.7 |
| 20260510065804 | 42 | 341 | 2.0 | 5.0 | 0.00 | 0.00 | 0.00 | 76 | 1013.6 |
| 20260510064804 | 42 | 319 | 1.0 | 2.0 | 0.00 | 0.00 | 0.00 | 76 | 1013.5 |
| 20260510063802 | 42 | 316 | 1.0 | 2.0 | 0.00 | 0.00 | 0.00 | 76 | 1013.6 |
| 20260510062802 | 0 | 0.0 | 0.0 | 0.00 | 0.00 | 0.00 | 1013.5 | ||
| 20260510061759 | 43 | 326 | 3.0 | 5.0 | 0.00 | 0.00 | 0.00 | 74 | 1013.5 |
| 20260510060757 | 44 | 326 | 4.0 | 6.0 | 0.00 | 0.00 | 0.00 | 73 | 1013.5 |
| 20260510055757 | 45 | 312 | 2.0 | 2.0 | 0.00 | 0.00 | 0.00 | 72 | 1013.3 |
| 20260510054755 | 45 | 305 | 0.0 | 0.0 | 0.00 | 0.00 | 0.00 | 72 | 1012.9 |
| 20260510053751 | 46 | 326 | 0.0 | 0.0 | 0.00 | 0.00 | 0.00 | 71 | 1012.9 |
| 20260510052750 | 46 | 322 | 0.0 | 0.0 | 0.00 | 0.00 | 0.00 | 72 | 1012.5 |
| 20260510051748 | 45 | 317 | 0.0 | 0.0 | 0.00 | 0.00 | 0.00 | 73 | 1012.6 |
| 20260510050747 | 46 | 309 | 0.0 | 0.0 | 0.00 | 0.00 | 0.00 | 72 | 1012.5 |
| 20260510045747 | 46 | 321 | 0.0 | 0.0 | 0.00 | 0.00 | 0.00 | 70 | 1012.5 |
| 20260510044747 | 46 | 264 | 0.0 | 0.0 | 0.00 | 0.00 | 0.00 | 70 | 1012.4 |
| 20260510043745 | 47 | 238 | 0.0 | 0.0 | 0.00 | 0.00 | 0.00 | 69 | 1012.3 |
| 20260510042746 | 47 | 343 | 0.0 | 0.0 | 0.00 | 0.00 | 0.00 | 68 | 1012.1 |
| 20260510041744 | 47 | 328 | 3.0 | 5.0 | 0.00 | 0.00 | 0.00 | 67 | 1011.9 |
| 20260510040745 | 48 | 350 | 1.0 | 3.0 | 0.00 | 0.00 | 0.00 | 67 | 1011.9 |
| 20260510035742 | 48 | 351 | 4.0 | 7.0 | 0.00 | 0.21 | 0.21 | 67 | 1012.2 |
| 20260510034740 | 48 | 6 | 1.0 | 3.0 | 0.00 | 0.21 | 0.21 | 66 | 1011.8 |
| 20260510033740 | 48 | 335 | 6.0 | 7.0 | 0.00 | 0.21 | 0.21 | 66 | 1012.1 |
| 20260510032740 | 49 | 290 | 0.0 | 0.0 | 0.00 | 0.21 | 0.21 | 68 | 1011.2 |
| 20260510031737 | 0 | 0.0 | 0.0 | 0.00 | 0.00 | 0.00 | 1011.2 | ||
| 20260510030733 | 0 | 0.0 | 0.0 | 0.00 | 0.00 | 0.00 | 1010.9 | ||
| 20260510025728 | 0 | 0.0 | 0.0 | 0.00 | 0.00 | 0.00 | 1010.9 | ||
| 20260510024728 | 0 | 0.0 | 0.0 | 0.00 | 0.00 | 0.00 | 1010.7 | ||
| 20260510023725 | 0 | 0.0 | 0.0 | 0.00 | 0.00 | 0.00 | 1010.6 | ||
| 20260510022725 | 0 | 0.0 | 0.0 | 0.00 | 0.00 | 0.00 | 1010.2 | ||
| 20260510021720 | 0 | 0.0 | 0.0 | 0.00 | 0.00 | 0.00 | 1010.2 | ||
| 20260510020719 | 53 | 290 | 2.0 | 3.0 | 0.00 | 0.21 | 0.21 | 86 | 1009.6 |
| 20260510015715 | 53 | 315 | 1.0 | 2.0 | 0.00 | 0.21 | 0.21 | 86 | 1009.6 |
| 20260510014713 | 0 | 0.0 | 0.0 | 0.00 | 0.00 | 0.00 | 1009.1 | ||
| 20260510013711 | 53 | 130 | 2.0 | 3.0 | 0.00 | 0.21 | 0.21 | 92 | 1009.1 |
| 20260510012707 | 0 | 0.0 | 0.0 | 0.00 | 0.00 | 0.00 | 1008.8 | ||
| 20260510011703 | 53 | 219 | 0.0 | 0.0 | 0.00 | 0.21 | 0.21 | 92 | 1008.8 |
| 20260510010701 | 0 | 0.0 | 0.0 | 0.00 | 0.00 | 0.00 | 1008.4 | ||
| 20260510005700 | 54 | 232 | 0.0 | 0.0 | 0.00 | 0.21 | 0.21 | 91 | 1008.2 |
| 20260510004655 | 54 | 211 | 0.0 | 0.0 | 0.00 | 0.21 | 0.21 | 90 | 1008.1 |
| 20260510003655 | 54 | 193 | 0.0 | 0.0 | 0.00 | 0.21 | 0.21 | 90 | 1007.9 |
| 20260510002651 | 54 | 202 | 0.0 | 0.0 | 0.00 | 0.21 | 0.21 | 90 | 1007.6 |
| 20260510001651 | 54 | 191 | 0.0 | 0.0 | 0.00 | 0.21 | 0.21 | 90 | 1007.5 |
| 20260510000650 | 54 | 189 | 0.0 | 0.0 | 0.00 | 0.21 | 0.21 | 90 | 1007.4 |
| 20260509235650 | 55 | 203 | 0.0 | 0.0 | 0.00 | 0.21 | 0.21 | 90 | 1007.2 |
| 20260509234648 | 55 | 190 | 1.0 | 1.0 | 0.00 | 0.21 | 0.21 | 89 | 1007.1 |
| 20260509233644 | 55 | 190 | 3.0 | 5.0 | 0.00 | 0.21 | 0.21 | 88 | 1006.8 |
| 20260509232642 | 55 | 184 | 5.0 | 9.0 | 0.00 | 0.21 | 0.21 | 89 | 1007.0 |
| 20260509231642 | 55 | 193 | 3.0 | 3.0 | 0.00 | 0.21 | 0.21 | 88 | 1006.6 |
| 20260509230642 | 55 | 221 | 2.0 | 2.0 | 0.00 | 0.21 | 0.21 | 86 | 1006.5 |
| 20260509225641 | 55 | 187 | 3.0 | 3.0 | 0.00 | 0.21 | 0.21 | 85 | 1006.2 |
| 20260509224638 | 55 | 176 | 3.0 | 5.0 | 0.00 | 0.21 | 0.21 | 85 | 1006.0 |
| 20260509223632 | 55 | 202 | 3.0 | 5.0 | 0.00 | 0.21 | 0.21 | 85 | 1006.0 |
| 20260509222632 | 55 | 172 | 3.0 | 3.0 | 0.00 | 0.21 | 0.21 | 85 | 1005.7 |
| 20260509221630 | 55 | 186 | 4.0 | 6.0 | 0.00 | 0.21 | 0.21 | 85 | 1005.7 |
| 20260509220627 | 53 | 185 | 4.0 | 5.0 | 0.00 | 0.21 | 0.21 | 87 | 1006.1 |
| 20260509215626 | 52 | 197 | 3.0 | 3.0 | 0.00 | 0.21 | 0.21 | 89 | 1006.1 |
| 20260509214626 | 51 | 185 | 4.0 | 6.0 | 0.00 | 0.21 | 0.21 | 90 | 1006.2 |
| 20260509213625 | 50 | 202 | 3.0 | 5.0 | 0.00 | 0.21 | 0.21 | 89 | 1006.2 |
| 20260509212625 | 50 | 216 | 3.0 | 7.0 | 0.00 | 0.21 | 0.21 | 91 | 1006.4 |
| 20260509211623 | 49 | 200 | 5.0 | 6.0 | 0.00 | 0.21 | 0.21 | 92 | 1006.5 |
| 20260509210622 | 49 | 200 | 8.0 | 14.0 | 0.05 | 0.21 | 0.21 | 92 | 1007.3 |
| 20260509205619 | 50 | 191 | 4.0 | 6.0 | 0.35 | 0.21 | 0.21 | 94 | 1006.5 |
| 20260509204617 | 55 | 192 | 10.0 | 15.0 | 0.31 | 0.15 | 0.15 | 92 | 1007.3 |
| 20260509203615 | 56 | 211 | 7.0 | 10.0 | 0.00 | 0.10 | 0.10 | 86 | 1005.9 |
| 20260509202614 | 57 | 193 | 7.0 | 9.0 | 0.00 | 0.10 | 0.10 | 85 | 1005.6 |
| 20260509201610 | 57 | 197 | 11.0 | 15.0 | 0.00 | 0.10 | 0.10 | 84 | 1005.7 |
| 20260509200608 | 56 | 171 | 10.0 | 15.0 | 0.00 | 0.10 | 0.10 | 85 | 1005.8 |
| 20260509195606 | 57 | 187 | 14.0 | 23.0 | 0.00 | 0.10 | 0.10 | 84 | 1005.8 |
| 20260509194606 | 57 | 174 | 6.0 | 13.0 | 0.00 | 0.10 | 0.10 | 83 | 1005.5 |
| 20260509193606 | 57 | 185 | 8.0 | 15.0 | 0.00 | 0.10 | 0.10 | 82 | 1005.6 |
| 20260509192605 | 58 | 196 | 9.0 | 15.0 | 0.00 | 0.10 | 0.10 | 81 | 1006.0 |
| 20260509191600 | 58 | 198 | 9.0 | 14.0 | 0.00 | 0.10 | 0.10 | 82 | 1005.9 |
| 20260509190559 | 57 | 135 | 6.0 | 14.0 | 0.00 | 0.10 | 0.10 | 84 | 1006.0 |
| 20260509185554 | 56 | 203 | 4.0 | 5.0 | 0.00 | 0.10 | 0.10 | 87 | 1006.3 |
| 20260509184549 | 55 | 184 | 5.0 | 7.0 | 0.00 | 0.10 | 0.10 | 89 | 1006.6 |
| 20260509183546 | 55 | 200 | 7.0 | 9.0 | 0.00 | 0.10 | 0.10 | 88 | 1007.0 |
| 20260509182544 | 55 | 168 | 6.0 | 9.0 | 0.00 | 0.10 | 0.10 | 89 | 1006.7 |
| 20260509181540 | 55 | 207 | 6.0 | 10.0 | 0.00 | 0.10 | 0.10 | 89 | 1006.7 |
| 20260509180538 | 56 | 180 | 12.0 | 21.0 | 0.00 | 0.10 | 0.10 | 87 | 1006.3 |
| 20260509175536 | 56 | 211 | 6.0 | 10.0 | 0.00 | 0.10 | 0.10 | 87 | 1006.5 |
| 20260509174536 | 57 | 210 | 9.0 | 13.0 | 0.00 | 0.10 | 0.10 | 84 | 1006.7 |
| 20260509173532 | 57 | 214 | 9.0 | 23.0 | 0.00 | 0.10 | 0.10 | 83 | 1006.4 |
| 20260509172531 | 58 | 209 | 9.0 | 13.0 | 0.00 | 0.10 | 0.10 | 83 | 1006.8 |
| 20260509171529 | 57 | 268 | 5.0 | 7.0 | 0.00 | 0.10 | 0.10 | 82 | 1007.0 |
| 20260509170527 | 55 | 202 | 2.0 | 5.0 | 0.00 | 0.10 | 0.10 | 86 | 1007.3 |
| 20260509165527 | 55 | 201 | 13.0 | 16.0 | 0.00 | 0.10 | 0.10 | 86 | 1007.6 |
| 20260509164525 | 55 | 207 | 11.0 | 20.0 | 0.00 | 0.10 | 0.10 | 85 | 1007.7 |
| 20260509163525 | 55 | 172 | 10.0 | 14.0 | 0.00 | 0.10 | 0.10 | 83 | 1007.6 |
| 20260509162524 | 55 | 208 | 10.0 | 16.0 | 0.00 | 0.10 | 0.10 | 86 | 1008.2 |
| 20260509161521 | 56 | 195 | 6.0 | 8.0 | 0.00 | 0.10 | 0.10 | 85 | 1008.1 |
| 20260509160517 | 56 | 212 | 4.0 | 6.0 | 0.00 | 0.10 | 0.10 | 84 | 1008.7 |
| 20260509155515 | 56 | 167 | 6.0 | 10.0 | 0.00 | 0.10 | 0.10 | 83 | 1008.3 |
| 20260509154514 | 55 | 199 | 13.0 | 20.0 | 0.00 | 0.10 | 0.10 | 84 | 1007.9 |
| 20260509153514 | 55 | 176 | 13.0 | 18.0 | 0.00 | 0.10 | 0.10 | 85 | 1008.3 |
| 20260509152512 | 54 | 192 | 13.0 | 16.0 | 0.00 | 0.10 | 0.10 | 89 | 1008.7 |
| 20260509151511 | 54 | 186 | 6.0 | 10.0 | 0.00 | 0.10 | 0.10 | 90 | 1008.6 |
| 20260509150506 | 54 | 200 | 5.0 | 8.0 | 0.00 | 0.10 | 0.10 | 89 | 1008.6 |
| 20260509145506 | 54 | 200 | 6.0 | 10.0 | 0.00 | 0.10 | 0.10 | 91 | 1008.7 |
| 20260509144504 | 54 | 183 | 20.0 | 23.0 | 0.00 | 0.10 | 0.10 | 88 | 1008.7 |
| 20260509143504 | 54 | 196 | 14.0 | 16.0 | 0.00 | 0.10 | 0.10 | 88 | 1008.6 |
| 20260509142503 | 54 | 179 | 7.0 | 13.0 | 0.00 | 0.10 | 0.10 | 90 | 1008.6 |
| 20260509141501 | 53 | 210 | 5.0 | 7.0 | 0.00 | 0.10 | 0.10 | 91 | 1008.7 |
| 20260509140500 | 53 | 188 | 8.0 | 10.0 | 0.00 | 0.10 | 0.10 | 92 | 1008.4 |
| 20260509135456 | 52 | 178 | 3.0 | 5.0 | 0.00 | 0.10 | 0.10 | 96 | 1008.6 |
| 20260509134451 | 51 | 193 | 3.0 | 8.0 | 0.00 | 0.10 | 0.10 | 99 | 1008.6 |
| 20260509133450 | 51 | 184 | 7.0 | 9.0 | 0.00 | 0.10 | 0.10 | 99 | 1008.8 |
| 20260509132446 | 51 | 175 | 8.0 | 11.0 | 0.00 | 0.10 | 0.10 | 99 | 1008.7 |
| 20260509131446 | 51 | 187 | 9.0 | 14.0 | 0.00 | 0.10 | 0.10 | 99 | 1008.9 |
| 20260509130444 | 50 | 189 | 12.0 | 14.0 | 0.00 | 0.10 | 0.10 | 99 | 1008.8 |
| 20260509125444 | 50 | 143 | 6.0 | 11.0 | 0.00 | 0.10 | 0.10 | 99 | 1008.8 |
| 20260509124443 | 50 | 187 | 6.0 | 8.0 | 0.00 | 0.10 | 0.10 | 99 | 1009.0 |
| 20260509123443 | 50 | 195 | 6.0 | 7.0 | 0.00 | 0.10 | 0.10 | 99 | 1009.1 |
| 20260509122442 | 50 | 205 | 4.0 | 6.0 | 0.00 | 0.10 | 0.10 | 99 | 1008.9 |
| 20260509121441 | 50 | 163 | 11.0 | 13.0 | 0.00 | 0.10 | 0.10 | 99 | 1009.2 |
| 20260509120437 | 49 | 190 | 1.0 | 2.0 | 0.00 | 0.10 | 0.10 | 99 | 1009.3 |
| 20260509115432 | 49 | 196 | 3.0 | 5.0 | 0.00 | 0.10 | 0.10 | 99 | 1009.2 |
| 20260509114428 | 49 | 189 | 7.0 | 10.0 | 0.00 | 0.10 | 0.10 | 99 | 1009.0 |
| 20260509113424 | 49 | 175 | 5.0 | 7.0 | 0.00 | 0.10 | 0.10 | 99 | 1009.1 |
| 20260509112424 | 49 | 156 | 0.0 | 1.0 | 0.00 | 0.10 | 0.10 | 99 | 1008.9 |
| 20260509111424 | 0 | 0.0 | 0.0 | 0.00 | 0.00 | 0.00 | 1009.1 | ||
| 20260509110423 | 0 | 0.0 | 0.0 | 0.00 | 0.00 | 0.00 | 1009.3 | ||
| 20260509105420 | 0 | 0.0 | 0.0 | 0.00 | 0.00 | 0.00 | 1009.1 | ||
| 20260509104419 | 0 | 0.0 | 0.0 | 0.00 | 0.00 | 0.00 | 1009.1 | ||
| 20260509103419 | 0 | 0.0 | 0.0 | 0.00 | 0.00 | 0.00 | 1009.1 | ||
| 20260509102415 | 48 | 196 | 5.0 | 7.0 | 0.00 | 0.10 | 0.10 | 99 | 1009.3 |
| 20260509101413 | 48 | 190 | 2.0 | 3.0 | 0.00 | 0.10 | 0.10 | 99 | 1009.3 |
| 20260509100413 | 0 | 0.0 | 0.0 | 0.00 | 0.00 | 0.00 | 1009.1 | ||
| 20260509095413 | 48 | 195 | 0.0 | 1.0 | 0.00 | 0.10 | 0.10 | 98 | 1009.3 |
| 20260509094412 | 48 | 202 | 1.0 | 3.0 | 0.00 | 0.10 | 0.10 | 98 | 1009.4 |
| 20260509093407 | 48 | 202 | 2.0 | 8.0 | 0.00 | 0.10 | 0.10 | 98 | 1009.5 |
| 20260509092403 | 48 | 178 | 0.0 | 1.0 | 0.00 | 0.10 | 0.10 | 98 | 1009.4 |
| 20260509091403 | 48 | 228 | 0.0 | 0.0 | 0.00 | 0.10 | 0.10 | 97 | 1009.6 |
| 20260509090358 | 48 | 208 | 0.0 | 0.0 | 0.00 | 0.10 | 0.10 | 97 | 1009.6 |
| 20260509085358 | 48 | 197 | 0.0 | 0.0 | 0.00 | 0.10 | 0.10 | 97 | 1009.6 |
| 20260509084357 | 48 | 203 | 0.0 | 0.0 | 0.00 | 0.10 | 0.10 | 97 | 1009.8 |
| 20260509083357 | 48 | 227 | 0.0 | 0.0 | 0.00 | 0.10 | 0.10 | 97 | 1010.1 |
| 20260509082356 | 48 | 180 | 0.0 | 1.0 | 0.00 | 0.10 | 0.10 | 97 | 1010.1 |
| 20260509081356 | 48 | 192 | 2.0 | 6.0 | 0.00 | 0.10 | 0.10 | 96 | 1009.9 |
| 20260509080352 | 48 | 191 | 0.0 | 1.0 | 0.00 | 0.10 | 0.10 | 96 | 1009.8 |
| 20260509075352 | 48 | 182 | 0.0 | 0.0 | 0.00 | 0.10 | 0.10 | 96 | 1009.9 |
| 20260509074347 | 48 | 213 | 0.0 | 0.0 | 0.00 | 0.10 | 0.10 | 95 | 1010.2 |
| 20260509073346 | 48 | 112 | 1.0 | 3.0 | 0.00 | 0.10 | 0.10 | 95 | 1010.2 |
| 20260509072344 | 49 | 214 | 0.0 | 0.0 | 0.00 | 0.10 | 0.10 | 95 | 1010.4 |